Location: Unspecified
(0.0000°N, 0.0000°E)
Time: 00:20:42
(UTC+00:00)

Vanguard 2 Rocket - Pass Details

Date: 11 December 2017
Orbit: 554 x 3327 km, 32.9° (Epoch: 22 July)

Event Time Altitude Azimuth Distance (km) Brightness Sun altitude
Rises 02:10:11 0° 314° (NW) 7,308 - -49.5°
Reaches altitude 10° 02:15:47 10° 321° (NW) 6,217 - -48.4°
Exits shadow 02:33:16 44° 25° (NNE) 3,327 9.5 -44.8°
Maximum altitude 02:33:32 44° 27° (NNE) 3,308 9.5 -44.8°
Drops below altitude 10° 02:45:16 10° 96° (E) 4,252 10.8 -42.3°
Sets 02:48:14 0° 102° (ESE) 4,916 11.4 -41.7°
